Location: Melizzano
(41.1500°N, 14.5000°E)
Time: 03:45:39
(UTC+00:00)

ATLAS 2AS CENTAUR R/B - Pass Details

Date: 11 May 2021
Orbit: 949 x 1263 km, 63.7° (Epoch: 07 May)

Event Time Altitude Azimuth Distance (km) Brightness Sun altitude
Rises 23:17:27 0° 313° (NW) 4,012 6.2 -30.6°
Reaches altitude 10° 23:20:57 10° 299° (WNW) 2,990 5.3 -30.5°
Enters shadow 23:24:29 20° 270° (W) 2,296 4.3 -30.4°
